sat.trackr.live / text

‹ back to catalog

STARLINK-31343

NORAD 59093 · 2024-041V

PAYLOAD ACTIVE UNKNOWN

§ Identity

Operator
Country
US
Launch date
2024-02-29
Launch site
AFETR
Launch vehicle
Mass (kg)
RCS (m²)

Purposes: comms

External: N2YO · Heavens-Above · Gunter

§ Orbital elements

Epoch: 2026-09-20T09:05:37.557888Z

Period
94.27 min
Inclination
43.0006°
Eccentricity
0.0001213
Mean motion
15.27575613 rev/d
Perigee alt
482.2 km
Apogee alt
483.9 km
Semi-major
6,861.2 km
B*
1.0626e-5
RAAN
291.4595°
Arg perigee
274.7546°
Mean anomaly
85.3167°
Rev number
14,409

§ Raw data

STARLINK-313431 59093U 24041V   26263.37890692  .00000030  00000+0  10626-4 0  99912 59093  43.0006 291.4595 0001213 274.7546  85.3167 15.27575613144098

JSON: /api/v1/satellites/59093 · /tle

For live sub-satellite position, see the globe view (requires WebGL).

§ Visibility from observer

Set your observer location to see the next 7 days of passes ≥ 10°. The values pass through the URL so the page stays shareable.

No JS? Fill the form by hand. The geolocation button needs JavaScript.